QPF
0.00 0.00 0.00 0.00 0.00 0.00 0.00 0.00 0.00 0.00 0.00 0.00 0.00 0.00 0.00 0.00 0.00 0.00 0.00 0.00 0.01 0.00 0.01 0.00 0.00 0.00 0.00 0.00 0.00 0.00 0.00 0.00 0.00 0.00 0.00 0.00 0.00 0.00 0.00 0.00 0.00 0.00 0.00
0.00 0.00 0.00 0.00 0.00 0.00 0.00 0.00 0.00 0.00 0.00 0.00 0.00 0.00 0.00 0.00 0.00 0.00 0.00 0.00 0.00 0.00 0.01 0.00 0.00 0.00 0.00 0.00 0.00 0.00 0.00 0.00 0.00 0.00 0.00 0.00 0.00 0.00 0.00 0.00 0.00 0.00 0.00
0.01 0.00 0.00 0.00 0.00 0.00 0.00 0.00 0.00 0.00 0.00 0.00 0.00 0.00 0.00 0.00 0.00 0.00 0.00 0.00 0.00 0.00 0.04 0.01 0.00 0.00 0.00 0.00 0.00 0.00 0.00 0.00 0.00 0.00 0.00 0.00 0.00 0.00 0.00 0.00 0.00 0.00 0.00
0.02 0.03 0.00 0.00 0.00 0.00 0.00 0.00 0.00 0.00 0.00 0.00 0.00 0.00 0.00 0.00 0.00 0.00 0.00 0.01 0.00 0.00 0.01 0.03 0.00 0.00 0.00 0.00 0.00 0.00 0.00 0.00 0.00 0.00 0.00 0.00 0.00 0.00 0.00 0.00 0.00 0.00 0.00
0.01 0.02 0.00 0.00 0.00 0.00 0.00 0.00 0.00 0.00 0.00 0.00 0.00 0.00 0.00 0.00 0.00 0.00 0.00 0.00 0.00 0.00 0.01 0.06 0.03 0.00 0.00 0.00 0.00 0.00 0.00 0.00 0.00 0.00 0.00 0.00 0.00 0.00 0.00 0.00 0.00 0.00 0.00
0.00 0.01 0.00 0.00 0.00 0.00 0.00 0.00 0.00 0.00 0.00 0.00 0.00 0.00 0.00 0.00 0.00 0.00 0.00 0.00 0.00 0.00 0.00 0.02 0.03 0.00 0.00 0.00 0.00 0.02 0.01 0.00 0.00 0.00 0.00 0.00 0.00 0.00 0.00 0.00 0.00 0.00 0.00
0.00 0.00 0.00 0.00 0.00 0.00 0.00 0.00 0.00 0.00 0.00 0.00 0.00 0.00 0.00 0.00 0.00 0.00 0.00 0.00 0.00 0.00 0.00 0.01 0.10 0.02 0.00 0.00 0.03 0.04 0.03 0.04 0.03 0.01 0.00 0.00 0.00 0.00 0.00 0.00 0.00 0.00 0.00
0.00 0.00 0.00 0.02 0.00 0.00 0.00 0.00 0.00 0.00 0.00 0.00 0.00 0.00 0.00 0.00 0.00 0.00 0.00 0.00 0.00 0.00 0.00 0.01 0.03 0.01 0.01 0.03 0.04 0.03 0.00 0.00 0.00 0.00 0.00 0.00 0.00 0.00 0.00 0.00 0.00 0.00 0.00
0.02 0.02 0.01 0.00 0.01 0.00 0.00 0.00 0.00 0.00 0.00 0.00 0.00 0.00 0.00 0.00 0.00 0.00 0.00 0.00 0.00 0.00 0.00 0.00 0.00 0.00 0.01 0.00 0.01 0.00 0.00 0.00 0.00 0.00 0.00 0.00 0.00 0.00 0.00 0.00 0.00 0.00 0.00
0.00 0.01 0.00 0.01 0.01 0.02 0.02 0.00 0.00 0.00 0.00 0.00 0.00 0.00 0.00 0.00 0.00 0.00 0.00 0.00 0.00 0.00 0.00 0.00 0.00 0.00 0.00 0.01 0.00 0.00 0.00 0.00 0.00 0.00 0.00 0.00 0.00 0.00 0.00 0.00 0.00 0.00 0.00
0.00 0.00 0.00 0.02 0.09 0.07 0.04 0.01 0.00 0.00 0.00 0.00 0.00 0.00 0.00 0.00 0.00 0.00 0.00 0.00 0.00 0.00 0.00 0.00 0.01 0.00 0.00 0.02 0.01 0.00 0.00 0.00 0.00 0.00 0.00 0.00 0.00 0.00 0.00 0.00 0.00 0.01 0.00
0.00 0.00 0.00 0.00 0.01 0.02 0.06 0.03 0.01 0.00 0.00 0.00 0.00 0.00 0.00 0.00 0.00 0.00 0.00 0.00 0.00 0.00 0.00 0.00 0.00 0.00 0.00 0.02 0.01 0.02 0.05 0.03 0.01 0.03 0.01 0.00 0.00 0.00 0.00 0.00 0.00 0.00 0.00
0.00 0.00 0.00 0.00 0.00 0.00 0.00 0.03 0.02 0.00 0.00 0.00 0.00 0.00 0.00 0.00 0.00 0.00 0.00 0.00 0.00 0.00 0.00 0.00 0.00 0.00 0.00 0.01 0.01 0.04 0.04 0.01 0.01 0.05 0.02 0.09 0.08 0.00 0.00 0.00 0.00 0.01 0.00
0.00 0.00 0.00 0.00 0.00 0.00 0.00 0.00 0.01 0.02 0.00 0.01 0.00 0.00 0.00 0.00 0.00 0.00 0.00 0.00 0.00 0.00 0.00 0.00 0.00 0.00 0.00 0.00 0.01 0.00 0.03 0.04 0.02 0.04 0.17 0.16 0.15 0.05 0.00 0.00 0.00 0.00 0.00
0.00 0.00 0.00 0.00 0.00 0.00 0.00 0.00 0.00 0.00 0.00 0.00 0.00 0.00 0.01 0.01 0.01 0.00 0.00 0.00 0.00 0.00 0.01 0.02 0.01 0.01 0.00 0.00 0.00 0.00 0.04 0.12 0.13 0.18 0.18 0.12 0.05 0.01 0.00 0.00 0.00 0.01 0.00
0.00 0.00 0.00 0.00 0.00 0.00 0.00 0.00 0.00 0.00 0.00 0.00 0.00 0.00 0.01 0.02 0.04 0.02 0.01 0.01 0.00 0.00 0.00 0.01 0.00 0.00 0.00 0.01 0.00 0.00 0.01 0.05 0.07 0.06 0.00 0.00 0.00 0.00 0.00 0.00 0.00 0.00 0.00
0.00 0.00 0.00 0.00 0.00 0.00 0.00 0.00 0.00 0.00 0.00 0.00 0.00 0.02 0.03 0.05 0.05 0.06 0.06 0.02 0.01 0.00 0.00 0.00 0.01 0.01 0.01 0.01 0.06 0.06 0.03 0.01 0.00 0.00 0.00 0.00 0.00 0.00 0.00 0.00 0.00 0.00 0.00
0.00 0.00 0.00 0.00 0.00 0.00 0.00 0.00 0.00 0.00 0.00 0.00 0.00 0.02 0.05 0.07 0.06 0.07 0.07 0.05 0.04 0.01 0.01 0.02 0.01 0.01 0.00 0.03 0.07 0.07 0.03 0.00 0.01 0.01 0.02 0.01 0.00 0.01 0.00 0.00 0.00 0.00 0.00
0.00 0.00 0.00 0.00 0.00 0.00 0.00 0.00 0.00 0.00 0.00 0.00 0.00 0.02 0.03 0.05 0.05 0.05 0.03 0.03 0.04 0.02 0.01 0.02 0.03 0.04 0.04 0.06 0.08 0.04 0.03 0.06 0.09 0.09 0.04 0.02 0.01 0.00 0.00 0.00 0.00 0.00 0.00
0.00 0.00 0.00 0.00 0.00 0.00 0.00 0.00 0.00 0.00 0.00 0.00 0.00 0.00 0.02 0.04 0.04 0.04 0.04 0.02 0.02 0.01 0.03 0.03 0.03 0.03 0.02 0.05 0.10 0.08 0.08 0.12 0.10 0.06 0.03 0.01 0.00 0.00 0.00 0.00 0.00 0.00 0.00
0.00 0.00 0.01 0.00 0.00 0.00 0.00 0.00 0.00 0.00 0.00 0.00 0.00 0.00 0.00 0.00 0.01 0.03 0.04 0.02 0.03 0.06 0.08 0.07 0.03 0.02 0.01 0.02 0.03 0.03 0.03 0.02 0.01 0.01 0.00 0.00 0.00 0.00 0.00 0.00 0.00 0.00 0.00
0.00 0.00 0.00 0.00 0.00 0.00 0.00 0.00 0.00 0.00 0.00 0.00 0.00 0.00 0.01 0.00 0.00 0.01 0.01 0.02 0.03 0.07 0.11 0.10 0.07 0.03 0.02 0.02 0.02 0.01 0.01 0.00 0.00 0.00 0.00 0.00 0.00 0.00 0.00 0.00 0.00 0.00 0.00
0.00 0.00 0.00 0.00 0.00 0.00 0.00 0.00 0.00 0.00 0.00 0.00 0.00 0.00 0.00 0.00 0.00 0.00 0.01 0.02 0.04 0.06 0.06 0.07 0.08 0.06 0.03 0.02 0.02 0.01 0.00 0.00 0.00 0.00 0.00 0.00 0.00 0.00 0.00 0.00 0.00 0.00 0.00
0.00 0.00 0.00 0.00 0.00 0.00 0.00 0.00 0.00 0.00 0.00 0.00 0.00 0.00 0.00 0.00 0.00 0.00 0.00 0.01 0.02 0.03 0.02 0.02 0.02 0.03 0.02 0.01 0.01 0.00 0.00 0.00 0.00 0.00 0.00 0.00 0.00 0.00 0.00 0.00 0.00 0.00 0.00
0.01 0.01 0.00 0.00 0.01 0.06 0.06 0.01 0.00 0.00 0.00 0.00 0.01 0.00 0.00 0.00 0.00 0.00 0.00 0.00 0.00 0.01 0.00 0.00 0.00 0.00 0.00 0.00 0.00 0.00 0.00 0.00 0.00 0.00 0.00 0.00 0.00 0.00 0.00 0.00 0.00 0.00 0.00
0.00 0.00 0.02 0.02 0.03 0.04 0.05 0.02 0.00 0.00 0.00 0.00 0.00 0.00 0.00 0.01 0.01 0.00 0.00 0.00 0.00 0.00 0.00 0.00 0.00 0.00 0.00 0.00 0.00 0.00 0.00 0.00 0.00 0.00 0.00 0.00 0.00 0.00 0.00 0.00 0.00 0.00 0.00
MSLP
1012.05 1012.55 1013.02 1013.88 1014.67 1015.34 1015.88 1016.30 1016.95 1017.25 1017.60 1017.94 1018.20 1018.42 1018.50 1018.60 1018.61 1018.53 1018.63 1018.87 1018.83 1019.09 1019.31 1019.51 1019.63 1019.76 1019.72 1019.77 1019.78 1019.82 1019.88 1019.65 1019.80 1019.84 1019.85 1019.75 1019.70 1019.49 1019.02 1018.88 1018.65 1018.56 1018.61
1012.07 1012.37 1012.88 1013.53 1014.12 1014.60 1015.35 1016.05 1016.49 1017.05 1017.42 1017.46 1017.57 1017.76 1018.01 1018.27 1018.36 1018.41 1018.61 1018.77 1018.73 1018.88 1019.13 1019.41 1019.65 1019.80 1019.85 1019.86 1019.89 1019.80 1020.10 1020.04 1020.01 1020.16 1020.39 1020.26 1019.92 1019.42 1018.96 1019.01 1018.86 1018.71 1018.63
1011.87 1012.19 1012.69 1013.16 1013.79 1014.34 1014.68 1015.42 1015.95 1016.40 1016.98 1017.33 1017.50 1017.78 1017.99 1018.21 1018.50 1018.65 1018.72 1018.45 1018.49 1018.75 1018.92 1019.18 1019.41 1019.62 1019.73 1019.82 1019.81 1019.80 1019.97 1020.04 1020.24 1020.22 1020.21 1020.67 1020.51 1020.11 1019.15 1018.91 1018.85 1018.57 1018.26
1011.67 1011.86 1012.29 1012.76 1013.18 1013.50 1014.28 1014.84 1015.55 1015.96 1016.45 1016.87 1017.37 1017.34 1017.49 1017.91 1017.98 1018.13 1018.20 1018.19 1018.20 1018.44 1018.62 1018.93 1019.27 1019.50 1019.53 1019.62 1019.64 1019.59 1019.83 1020.00 1020.19 1020.36 1020.20 1020.40 1020.52 1020.49 1019.92 1019.18 1018.85 1018.54 1018.05
1011.01 1011.44 1011.48 1011.67 1012.25 1013.11 1013.60 1014.32 1014.92 1015.61 1016.08 1016.56 1016.81 1017.04 1017.33 1017.30 1017.49 1017.82 1018.07 1018.10 1018.11 1018.17 1018.42 1018.67 1018.94 1019.12 1019.28 1019.37 1019.44 1019.45 1019.74 1019.95 1020.12 1020.26 1020.26 1020.35 1020.51 1020.55 1020.49 1019.95 1019.18 1018.18 1017.93
1010.48 1010.94 1011.14 1011.40 1011.88 1012.74 1013.56 1014.03 1014.67 1015.01 1015.58 1016.05 1016.51 1016.79 1017.01 1017.11 1017.50 1017.80 1018.01 1018.04 1018.10 1018.20 1018.16 1018.38 1018.73 1018.93 1019.09 1019.13 1019.12 1019.30 1019.55 1019.81 1019.90 1020.08 1020.16 1020.18 1020.29 1020.30 1020.38 1020.25 1019.66 1019.14 1018.13
1009.92 1010.44 1010.90 1011.24 1011.66 1012.08 1012.73 1013.52 1014.12 1014.78 1015.12 1015.54 1016.04 1016.38 1016.59 1016.81 1017.06 1017.30 1017.55 1017.85 1018.05 1018.09 1018.05 1018.17 1018.74 1018.70 1018.57 1018.71 1018.75 1019.06 1019.31 1019.53 1019.74 1019.73 1019.85 1019.89 1019.88 1019.89 1020.08 1020.08 1019.68 1019.33 1018.56
1009.62 1010.12 1010.38 1010.95 1011.17 1011.54 1012.17 1012.96 1013.56 1014.01 1014.62 1015.07 1015.42 1015.78 1016.09 1016.48 1016.70 1016.82 1017.04 1017.26 1017.45 1017.48 1017.48 1017.69 1018.08 1018.21 1018.29 1018.41 1018.50 1018.98 1018.93 1019.19 1019.35 1019.41 1019.45 1019.46 1019.45 1019.61 1019.72 1019.66 1019.54 1019.29 1018.93
1009.37 1009.64 1010.13 1010.30 1010.66 1011.21 1011.59 1012.35 1013.38 1013.73 1014.05 1014.36 1014.92 1015.32 1015.63 1016.00 1016.25 1016.42 1016.55 1016.72 1016.75 1016.92 1017.16 1017.25 1017.72 1017.83 1017.97 1018.03 1018.19 1018.68 1018.78 1018.97 1019.03 1019.08 1019.09 1019.11 1019.00 1019.11 1019.28 1019.39 1019.35 1019.31 1019.07
1009.43 1009.65 1009.84 1010.07 1010.45 1010.92 1011.55 1012.04 1012.42 1013.29 1013.61 1014.08 1014.43 1014.78 1015.16 1015.49 1015.75 1016.03 1016.18 1016.25 1016.32 1016.50 1016.67 1016.95 1017.21 1017.54 1017.58 1017.76 1018.06 1018.37 1018.52 1018.64 1018.72 1018.82 1018.84 1018.79 1018.71 1018.76 1018.87 1018.94 1018.99 1019.04 1018.98
1009.37 1009.61 1009.81 1010.09 1010.38 1011.18 1011.25 1011.38 1011.33 1012.42 1013.07 1013.37 1013.56 1013.97 1014.42 1015.00 1015.54 1015.75 1015.80 1015.91 1015.97 1016.17 1016.38 1016.48 1016.73 1016.94 1017.16 1017.44 1017.79 1017.98 1018.22 1018.47 1018.48 1018.50 1018.53 1018.52 1018.53 1018.48 1018.52 1018.60 1018.69 1018.61 1018.75
1009.02 1009.26 1009.54 1009.86 1010.09 1010.49 1010.99 1011.15 1011.24 1011.54 1011.87 1012.58 1013.31 1013.54 1014.09 1014.57 1014.88 1015.36 1015.48 1015.57 1015.79 1015.90 1016.01 1016.16 1016.38 1016.45 1016.59 1016.96 1017.32 1017.53 1017.77 1018.05 1018.07 1018.07 1018.17 1018.06 1018.12 1018.17 1018.17 1018.31 1018.31 1018.28 1018.29
1009.64 1009.79 1009.87 1010.14 1010.32 1010.47 1010.63 1010.68 1010.94 1011.08 1011.54 1012.13 1012.72 1012.98 1013.17 1013.86 1014.31 1014.60 1015.03 1015.27 1015.37 1015.63 1015.81 1015.99 1016.03 1016.02 1016.22 1016.46 1016.69 1016.91 1017.19 1017.38 1017.40 1017.56 1017.70 1017.66 1017.86 1017.79 1017.83 1017.92 1017.88 1017.80 1017.82
1009.95 1010.08 1010.38 1010.63 1010.73 1010.75 1010.79 1010.74 1010.64 1011.11 1011.30 1011.57 1011.89 1012.20 1012.57 1012.87 1013.20 1013.74 1014.28 1014.72 1014.96 1015.22 1015.40 1015.48 1015.58 1015.67 1015.89 1016.19 1016.39 1016.60 1016.76 1016.85 1016.93 1017.02 1017.11 1017.27 1017.58 1017.53 1017.51 1017.62 1017.61 1017.61 1017.60
1010.66 1010.79 1010.80 1010.80 1010.93 1011.04 1011.09 1011.05 1010.94 1011.16 1011.34 1011.35 1011.48 1011.29 1011.15 1011.58 1012.44 1013.00 1013.21 1013.83 1014.28 1014.43 1014.75 1014.99 1015.04 1015.19 1015.48 1015.71 1015.97 1016.18 1016.32 1016.44 1016.55 1016.63 1016.85 1016.79 1017.20 1017.31 1017.30 1017.41 1017.43 1017.49 1017.53
1011.13 1011.37 1011.42 1011.26 1011.30 1011.19 1011.14 1011.18 1011.24 1011.33 1011.48 1011.63 1011.46 1011.28 1011.67 1011.83 1011.92 1012.12 1012.40 1012.70 1013.31 1013.78 1014.09 1014.43 1014.60 1014.81 1015.09 1015.29 1015.50 1015.73 1016.08 1016.26 1016.37 1016.44 1016.52 1016.82 1017.27 1017.39 1017.44 1017.52 1017.55 1017.54 1017.44
1011.23 1011.51 1011.65 1011.78 1011.86 1011.78 1011.49 1011.29 1011.25 1011.13 1011.29 1011.38 1011.42 1011.33 1011.36 1011.23 1011.08 1011.18 1011.44 1011.71 1012.18 1013.05 1013.38 1013.76 1014.07 1014.42 1014.81 1015.17 1015.38 1015.59 1015.88 1016.04 1016.25 1016.61 1016.94 1017.21 1017.56 1017.67 1017.85 1017.83 1017.75 1017.65 1017.55
1011.42 1011.72 1011.86 1011.92 1012.00 1011.89 1011.69 1011.42 1011.20 1011.05 1011.01 1010.92 1010.87 1010.73 1010.64 1010.64 1010.54 1010.52 1010.95 1011.16 1011.83 1012.17 1012.67 1013.19 1013.50 1014.01 1014.89 1015.27 1015.35 1015.61 1015.93 1016.14 1016.71 1017.05 1017.35 1017.70 1018.07 1018.08 1017.94 1017.83 1017.81 1017.90 1017.89
1011.56 1011.79 1011.93 1012.00 1011.94 1011.82 1011.74 1011.46 1011.15 1011.07 1010.88 1010.57 1010.23 1009.95 1009.85 1009.75 1010.04 1010.25 1010.05 1010.56 1011.12 1011.38 1011.99 1012.54 1013.28 1014.02 1014.89 1015.26 1015.35 1015.50 1015.88 1016.56 1017.22 1017.67 1017.94 1017.99 1018.33 1018.31 1018.03 1018.03 1018.12 1018.05 1018.24
1011.60 1011.86 1011.97 1012.07 1012.12 1011.89 1011.69 1011.54 1011.23 1011.05 1010.67 1010.37 1009.89 1009.42 1008.95 1008.76 1008.77 1009.04 1009.32 1009.37 1009.91 1010.93 1012.05 1012.54 1013.22 1013.84 1014.77 1015.07 1015.25 1015.51 1016.17 1016.69 1017.57 1018.20 1018.55 1018.65 1018.79 1018.54 1018.31 1018.54 1018.50 1018.45 1018.44
1011.70 1011.87 1011.89 1012.06 1012.19 1012.01 1011.83 1011.59 1011.20 1011.00 1010.72 1010.11 1009.38 1008.29 1007.53 1007.47 1008.01 1008.58 1008.94 1009.50 1010.11 1011.13 1012.04 1012.85 1013.73 1014.16 1014.76 1015.03 1015.12 1015.58 1016.03 1016.74 1017.59 1018.22 1018.85 1019.00 1018.91 1018.76 1018.78 1018.78 1019.03 1018.91 1018.74
1011.60 1011.65 1011.71 1011.83 1012.00 1011.86 1011.59 1011.63 1011.62 1011.36 1010.72 1009.97 1009.10 1006.92 1006.48 1006.94 1007.50 1008.16 1008.51 1008.50 1009.85 1011.35 1012.48 1013.18 1014.07 1014.74 1015.20 1015.29 1015.33 1015.74 1016.29 1016.97 1017.65 1018.34 1018.81 1018.97 1018.81 1019.10 1018.68 1018.68 1018.88 1018.60 1018.59
1011.58 1011.59 1011.73 1011.80 1011.90 1011.86 1011.69 1011.82 1011.84 1011.31 1010.79 1010.46 1009.67 1008.67 1007.77 1007.68 1007.77 1008.32 1008.84 1009.30 1010.17 1011.35 1012.35 1012.96 1013.83 1014.90 1015.60 1016.24 1016.40 1016.35 1017.19 1017.72 1018.13 1018.38 1018.79 1018.06 1019.10 1019.19 1019.01 1018.67 1018.80 1018.71 1018.53
1011.48 1011.39 1011.65 1011.75 1011.87 1011.92 1011.68 1011.77 1011.75 1011.43 1010.98 1011.01 1010.63 1010.25 1009.71 1009.31 1009.12 1009.26 1009.72 1010.29 1010.65 1011.26 1012.13 1012.48 1013.75 1014.82 1015.59 1016.47 1017.65 1018.35 1017.56 1017.98 1018.25 1018.73 1019.16 1018.11 1018.81 1019.17 1019.12 1018.88 1018.89 1018.88 1018.79
1011.75 1011.48 1011.45 1011.54 1011.88 1011.83 1011.79 1011.77 1011.83 1011.71 1011.41 1012.03 1011.83 1011.57 1011.32 1011.03 1010.92 1011.06 1011.05 1011.26 1011.38 1011.84 1012.14 1012.10 1013.04 1014.74 1016.38 1017.20 1016.93 1018.60 1018.27 1018.47 1018.70 1019.18 1018.91 1018.57 1018.96 1019.23 1019.49 1019.35 1019.20 1019.13 1019.05
1011.95 1011.57 1011.66 1011.63 1011.91 1011.98 1012.03 1012.14 1012.13 1011.97 1012.12 1012.56 1012.79 1012.58 1012.34 1012.31 1012.02 1012.14 1012.27 1012.85 1012.73 1013.41 1013.66 1013.90 1014.25 1015.45 1017.03 1017.38 1017.28 1018.02 1018.35 1018.62 1018.34 1018.91 1019.09 1019.31 1019.43 1019.55 1019.59 1019.59 1019.55 1019.53 1019.58
Thickness
5770 5771 5770 5765 5758 5752 5748 5746 5740 5740 5740 5739 5739 5739 5740 5742 5745 5748 5749 5751 5755 5757 5758 5758 5759 5761 5764 5766 5767 5766 5766 5770 5770 5768 5769 5769 5770 5771 5774 5772 5772 5772 5768
5764 5768 5768 5765 5762 5759 5753 5748 5746 5742 5741 5744 5745 5746 5746 5746 5746 5748 5749 5752 5755 5759 5760 5760 5760 5761 5763 5766 5766 5767 5764 5767 5768 5764 5761 5758 5765 5772 5775 5772 5772 5772 5769
5763 5764 5765 5764 5763 5760 5759 5754 5750 5749 5746 5745 5745 5745 5746 5746 5745 5744 5747 5753 5756 5758 5761 5761 5762 5762 5763 5765 5766 5767 5766 5764 5766 5766 5764 5752 5751 5758 5773 5774 5773 5774 5774
5766 5766 5766 5765 5766 5766 5763 5759 5755 5754 5752 5749 5747 5748 5747 5743 5749 5750 5753 5755 5758 5759 5761 5762 5762 5762 5764 5765 5766 5767 5767 5766 5763 5763 5766 5764 5761 5756 5760 5772 5773 5775 5778
5770 5768 5770 5773 5773 5769 5767 5763 5760 5757 5755 5752 5752 5751 5748 5749 5753 5754 5754 5755 5758 5760 5761 5763 5763 5764 5766 5766 5767 5766 5765 5766 5764 5762 5763 5763 5761 5759 5756 5757 5765 5777 5779
5776 5773 5776 5776 5775 5772 5767 5764 5760 5760 5759 5756 5752 5751 5750 5750 5749 5750 5752 5755 5758 5760 5763 5763 5763 5764 5765 5766 5767 5767 5766 5765 5765 5764 5763 5763 5760 5759 5756 5754 5759 5762 5775
5779 5776 5773 5772 5774 5773 5770 5767 5763 5760 5761 5759 5756 5754 5754 5752 5752 5754 5754 5755 5756 5759 5762 5762 5761 5763 5766 5767 5768 5768 5767 5766 5765 5765 5764 5765 5764 5764 5761 5757 5758 5759 5769
5781 5778 5777 5773 5774 5776 5773 5768 5764 5764 5763 5762 5759 5758 5757 5755 5755 5758 5757 5757 5760 5763 5764 5765 5764 5764 5765 5766 5768 5766 5768 5768 5767 5767 5767 5767 5767 5765 5763 5760 5758 5757 5760
5780 5780 5779 5779 5775 5774 5775 5770 5762 5762 5762 5764 5761 5758 5758 5758 5757 5758 5760 5761 5763 5764 5763 5765 5764 5764 5765 5766 5766 5765 5766 5766 5767 5767 5768 5768 5770 5767 5765 5762 5760 5757 5752
5776 5778 5780 5780 5779 5775 5772 5770 5766 5762 5761 5762 5762 5760 5758 5758 5759 5760 5761 5763 5764 5765 5765 5765 5766 5765 5765 5764 5764 5764 5765 5765 5766 5766 5766 5768 5770 5769 5766 5764 5762 5760 5757
5773 5774 5775 5775 5775 5769 5770 5772 5772 5765 5763 5762 5765 5764 5762 5758 5756 5757 5761 5763 5765 5765 5766 5767 5767 5767 5767 5766 5764 5764 5763 5761 5763 5764 5764 5765 5767 5767 5766 5765 5763 5761 5759
5774 5775 5775 5773 5771 5768 5765 5766 5767 5768 5763 5759 5762 5764 5762 5760 5758 5756 5758 5761 5762 5765 5765 5767 5766 5769 5770 5768 5766 5765 5765 5763 5762 5763 5763 5764 5765 5764 5765 5763 5762 5760 5760
5763 5763 5765 5765 5765 5767 5766 5766 5765 5764 5765 5763 5759 5760 5764 5762 5759 5758 5755 5757 5759 5761 5763 5764 5764 5766 5768 5768 5767 5767 5766 5765 5765 5764 5763 5764 5762 5761 5762 5761 5760 5761 5760
5754 5754 5753 5753 5755 5757 5758 5759 5761 5758 5760 5758 5761 5759 5763 5763 5763 5762 5757 5754 5757 5758 5759 5763 5763 5764 5765 5765 5766 5765 5764 5765 5765 5765 5764 5761 5758 5757 5759 5758 5757 5757 5755
5743 5742 5744 5746 5747 5748 5751 5754 5755 5753 5753 5752 5756 5761 5764 5763 5757 5759 5761 5757 5755 5759 5760 5761 5763 5764 5764 5764 5763 5762 5761 5762 5761 5762 5760 5756 5756 5756 5756 5754 5753 5752 5749
5729 5729 5732 5735 5737 5741 5743 5745 5746 5747 5747 5747 5749 5753 5752 5754 5756 5760 5760 5761 5758 5756 5757 5758 5760 5762 5763 5762 5761 5761 5759 5758 5757 5756 5756 5753 5750 5749 5747 5745 5744 5744 5743
5719 5718 5722 5722 5724 5726 5733 5736 5739 5742 5742 5740 5742 5744 5745 5748 5753 5757 5760 5761 5759 5754 5754 5754 5756 5758 5758 5755 5754 5754 5754 5753 5752 5748 5746 5744 5741 5739 5738 5737 5736 5736 5736
5710 5707 5708 5710 5712 5717 5721 5727 5731 5733 5735 5737 5737 5741 5741 5743 5749 5752 5752 5754 5753 5753 5752 5751 5752 5751 5749 5748 5748 5746 5746 5746 5741 5738 5735 5732 5729 5728 5730 5731 5729 5727 5724
5702 5700 5700 5701 5705 5708 5711 5715 5719 5722 5726 5731 5735 5737 5740 5741 5742 5743 5746 5748 5749 5751 5750 5749 5746 5743 5738 5740 5740 5740 5739 5734 5728 5724 5722 5722 5719 5718 5721 5720 5716 5714 5711
5693 5691 5692 5692 5693 5698 5701 5702 5708 5712 5717 5723 5728 5732 5738 5741 5743 5744 5742 5744 5745 5743 5737 5738 5737 5736 5731 5732 5732 5733 5729 5723 5716 5710 5707 5706 5705 5706 5708 5705 5703 5701 5698
5684 5683 5684 5684 5684 5687 5689 5692 5698 5702 5707 5715 5722 5733 5737 5740 5738 5736 5736 5734 5733 5731 5726 5724 5722 5723 5720 5721 5723 5723 5720 5714 5707 5703 5696 5694 5695 5695 5692 5690 5686 5684 5684
5675 5677 5678 5678 5677 5681 5684 5684 5685 5690 5696 5704 5713 5735 5737 5733 5730 5728 5729 5735 5725 5716 5711 5711 5706 5705 5705 5707 5710 5709 5706 5702 5696 5690 5685 5684 5684 5679 5683 5680 5675 5677 5675
5666 5670 5671 5671 5671 5674 5676 5676 5675 5682 5687 5691 5698 5707 5714 5715 5716 5714 5714 5715 5712 5708 5702 5703 5699 5692 5688 5685 5689 5693 5687 5685 5681 5680 5674 5680 5670 5666 5667 5669 5666 5666 5666
5660 5665 5665 5665 5665 5668 5671 5670 5670 5673 5676 5676 5680 5685 5689 5691 5694 5699 5702 5700 5702 5700 5697 5697 5688 5681 5677 5674 5667 5664 5672 5669 5666 5663 5659 5669 5662 5655 5654 5655 5654 5654 5656
5655 5660 5662 5662 5662 5664 5667 5667 5665 5665 5668 5660 5662 5665 5669 5672 5671 5670 5680 5684 5686 5688 5690 5688 5684 5673 5664 5660 5663 5651 5651 5652 5650 5647 5648 5653 5647 5644 5641 5643 5646 5647 5648
5653 5658 5658 5661 5659 5661 5661 5659 5659 5659 5657 5653 5651 5652 5655 5658 5659 5658 5662 5658 5663 5661 5661 5662 5663 5656 5646 5645 5647 5644 5642 5641 5645 5640 5639 5636 5637 5637 5639 5639 5639 5638 5636